| time (UTC) | temp F | wind direction | speed MPH | gust MPH | rain 1hr in | rain 24hr in | rain mn in | humidity % | barometer mb |
| 20260507150034 | 52 | 268 | 6.0 | 13.0 | 0.00 | 0.00 | 0.00 | 80 | |
| 20260507143030 | 52 | 229 | 8.0 | 12.0 | 0.00 | 0.00 | 0.00 | 79 | |
| 20260507140030 | 51 | 284 | 12.0 | 19.0 | 0.00 | 0.00 | 0.00 | 81 | |
| 20260507133029 | 49 | 293 | 8.0 | 14.0 | 0.00 | 0.00 | 0.00 | 83 | |
| 20260507131531 | 49 | 287 | 0.0 | 6.0 | 0.00 | 0.00 | 0.00 | 83 | |
| 20260507130029 | 50 | 296 | 3.0 | 9.0 | 0.00 | 0.00 | 0.00 | 83 | |
| 20260507124529 | 50 | 282 | 6.0 | 10.0 | 0.00 | 0.00 | 0.00 | 83 | |
| 20260507123029 | 50 | 298 | 6.0 | 10.0 | 0.00 | 0.00 | 0.00 | 83 | |
| 20260507114535 | 51 | 326 | 7.0 | 12.0 | 0.00 | 0.00 | 0.00 | 83 | |
| 20260507113148 | 51 | 317 | 8.0 | 14.0 | 0.00 | 0.00 | 0.00 | 83 | |
| 20260507110029 | 51 | 3 | 5.0 | 10.0 | 0.00 | 0.00 | 0.00 | 81 | |
| 20260507103106 | 52 | 274 | 5.0 | 12.0 | 0.00 | 0.00 | 0.00 | 79 | |
| 20260507101530 | 52 | 270 | 4.0 | 11.0 | 0.00 | 0.00 | 0.00 | 78 | |
| 20260507100046 | 53 | 259 | 4.0 | 8.0 | 0.00 | 0.00 | 0.00 | 78 | |
| 20260507091602 | 54 | 291 | 9.0 | 14.0 | 0.00 | 0.00 | 0.00 | 79 | |
| 20260507090105 | 54 | 279 | 2.0 | 13.0 | 0.00 | 0.00 | 0.00 | 80 | |
| 20260507084602 | 54 | 253 | 4.0 | 9.0 | 0.00 | 0.00 | 0.00 | 79 | |
| 20260507083146 | 55 | 278 | 7.0 | 14.0 | 0.00 | 0.00 | 0.00 | 79 | |
| 20260507080029 | 55 | 279 | 11.0 | 15.0 | 0.00 | 0.00 | 0.00 | 78 | |
| 20260507073031 | 55 | 273 | 9.0 | 15.0 | 0.00 | 0.00 | 0.00 | 79 | |
| 20260507071531 | 55 | 272 | 5.0 | 11.0 | 0.00 | 0.00 | 0.00 | 78 | |
| 20260507070036 | 56 | 277 | 6.0 | 10.0 | 0.00 | 0.00 | 0.00 | 77 | |
| 20260507064531 | 56 | 256 | 3.0 | 7.0 | 0.00 | 0.00 | 0.00 | 76 | |
| 20260507063030 | 57 | 270 | 7.0 | 12.0 | 0.00 | 0.00 | 0.00 | 76 | |
| 20260507061530 | 57 | 263 | 7.0 | 13.0 | 0.00 | 0.00 | 0.00 | 76 | |
| 20260507054529 | 57 | 266 | 7.0 | 12.0 | 0.00 | 0.00 | 0.00 | 76 | |
| 20260507053055 | 56 | 276 | 7.0 | 11.0 | 0.00 | 0.00 | 0.00 | 73 | |
| 20260507051529 | 56 | 272 | 3.0 | 10.0 | 0.00 | 0.00 | 0.00 | 70 | |
| 20260507044529 | 59 | 283 | 5.0 | 9.0 | 0.00 | 0.00 | 0.00 | 63 | |
| 20260507043030 | 60 | 254 | 6.0 | 10.0 | 0.00 | 0.00 | 0.00 | 57 | |
| 20260507040036 | 62 | 255 | 6.0 | 11.0 | 0.00 | 0.00 | 0.00 | 55 | |
| 20260507033029 | 62 | 280 | 8.0 | 12.0 | 0.00 | 0.00 | 0.00 | 55 | |
| 20260507031602 | 64 | 282 | 9.0 | 16.0 | 0.00 | 0.00 | 0.00 | 54 | |
| 20260507024530 | 64 | 292 | 7.0 | 17.0 | 0.00 | 0.00 | 0.00 | 55 | |
| 20260507023030 | 63 | 286 | 7.0 | 14.0 | 0.00 | 0.00 | 0.00 | 55 | |
| 20260507020029 | 64 | 312 | 4.0 | 11.0 | 0.00 | 0.00 | 0.00 | 54 | |
| 20260507014528 | 64 | 290 | 5.0 | 13.0 | 0.00 | 0.00 | 0.00 | 54 | |
| 20260507013030 | 65 | 298 | 4.0 | 11.0 | 0.00 | 0.00 | 0.00 | 54 | |
| 20260507011530 | 65 | 287 | 6.0 | 17.0 | 0.00 | 0.00 | 0.00 | 52 | |
| 20260507004530 | 67 | 272 | 8.0 | 16.0 | 0.00 | 0.00 | 0.00 | 51 | |
| 20260507003031 | 67 | 275 | 6.0 | 14.0 | 0.00 | 0.00 | 0.00 | 49 | |
| 20260507001606 | 67 | 288 | 6.0 | 15.0 | 0.00 | 0.00 | 0.00 | 48 | |
| 20260507000108 | 68 | 281 | 8.0 | 18.0 | 0.00 | 0.00 | 0.00 | 48 | |
| 20260506234531 | 69 | 281 | 11.0 | 18.0 | 0.00 | 0.00 | 0.00 | 49 | |
| 20260506233032 | 70 | 265 | 16.0 | 27.0 | 0.00 | 0.00 | 0.00 | 48 | |
| 20260506230028 | 69 | 256 | 17.0 | 27.0 | 0.00 | 0.00 | 0.00 | 48 | |
| 20260506224529 | 70 | 250 | 18.0 | 28.0 | 0.00 | 0.00 | 0.00 | 48 | |
| 20260506223029 | 70 | 251 | 17.0 | 32.0 | 0.00 | 0.00 | 0.00 | 49 | |
| 20260506221530 | 70 | 252 | 14.0 | 25.0 | 0.00 | 0.00 | 0.00 | 50 | |
| 20260506220029 | 70 | 258 | 13.0 | 24.0 | 0.00 | 0.00 | 0.00 | 49 | |
| 20260506214532 | 71 | 259 | 12.0 | 24.0 | 0.00 | 0.00 | 0.00 | 49 | |
| 20260506213029 | 72 | 267 | 11.0 | 22.0 | 0.00 | 0.00 | 0.00 | 50 | |
| 20260506211529 | 72 | 258 | 14.0 | 23.0 | 0.00 | 0.00 | 0.00 | 51 | |
| 20260506210029 | 71 | 258 | 15.0 | 24.0 | 0.00 | 0.00 | 0.00 | 52 | |
| 20260506203102 | 70 | 268 | 12.0 | 19.0 | 0.00 | 0.00 | 0.00 | 54 | |
| 20260506201540 | 71 | 272 | 14.0 | 24.0 | 0.00 | 0.00 | 0.00 | 55 | |
| 20260506200028 | 70 | 259 | 13.0 | 24.0 | 0.00 | 0.00 | 0.00 | 57 | |
| 20260506194531 | 69 | 274 | 14.0 | 22.0 | 0.00 | 0.00 | 0.00 | 58 | |
| 20260506191531 | 68 | 283 | 17.0 | 29.0 | 0.00 | 0.00 | 0.00 | 61 | |
| 20260506190031 | 67 | 282 | 14.0 | 27.0 | 0.00 | 0.00 | 0.00 | 61 | |
| 20260506184604 | 66 | 281 | 16.0 | 26.0 | 0.00 | 0.00 | 0.00 | 63 | |
| 20260506183029 | 66 | 281 | 18.0 | 27.0 | 0.00 | 0.00 | 0.00 | 63 | |
| 20260506181646 | 65 | 275 | 18.0 | 27.0 | 0.00 | 0.00 | 0.00 | 64 | |
| 20260506180106 | 66 | 271 | 16.0 | 25.0 | 0.00 | 0.00 | 0.00 | 64 | |
| 20260506174647 | 66 | 281 | 11.0 | 21.0 | 0.00 | 0.00 | 0.00 | 64 | |
| 20260506173029 | 66 | 283 | 11.0 | 17.0 | 0.00 | 0.00 | 0.00 | 64 | |
| 20260506171530 | 65 | 267 | 10.0 | 19.0 | 0.00 | 0.00 | 0.00 | 66 | |
| 20260506164529 | 63 | 265 | 10.0 | 18.0 | 0.00 | 0.00 | 0.00 | 67 | |
| 20260506163031 | 63 | 258 | 11.0 | 21.0 | 0.00 | 0.00 | 0.00 | 68 | |
| 20260506161531 | 62 | 261 | 13.0 | 22.0 | 0.00 | 0.00 | 0.00 | 68 | |
| 20260506160029 | 61 | 262 | 14.0 | 23.0 | 0.00 | 0.00 | 0.00 | 71 | |
| 20260506154530 | 60 | 272 | 13.0 | 20.0 | 0.00 | 0.00 | 0.00 | 73 | |
| 20260506153030 | 60 | 269 | 7.0 | 16.0 | 0.00 | 0.00 | 0.00 | 74 | |
| 20260506151529 | 59 | 268 | 7.0 | 15.0 | 0.00 | 0.00 | 0.00 | 77 |